Starlink 4040

operational
NORAD ID: 53151 Int'l Des: 2022-083 Owner: SPXS Country: US Constellation: starlink
LEOCIRCULAR

Über Starlink 4040

Beschreibung wird geladen...

Live-Position

3D-Globus wird geladen...

Nächste Überflüge

Höhenverlauf

Altitude vs Time

uPlot chart will show altitude changes over time

Zweizeiliger Elementsatz

1 53151U 22083V 25308.54073018 .00000195 00000-0 30370-4 0 9998
2 53151 53.2174 5.9363 0001384 85.2739 274.8411 15.08842182182462
Epoch: 4. Nov. 2025 • Age: 6 hours

Aktueller Status

Höhe 552.3 km
Geschwindigkeit 7.59 km/s
Subsatellitenpunkt -36.59°S, 107.19°W
Startdatum 17. Juli 2022
Alter 3.3 years
Typ internet

Technische Details

Klassifizierung Payload
Masse 297.00 kg
Trockenmasse 275.00 kg
Gesamtmasse 297.00 kg
Länge 0.20 m
Durchmesser 2.80 m
Spannweite 9.00 m
Form Box + pan
Hersteller SPXS
Bus-Typ Starlink
Phasenstatus In Orbit
Besitzer/Staat SPXS/US

Große Konstellationen

Loading constellations...